Evergreen, AL

9:36 PM CDT on August 17, 2017 (GMT -0500)
Middleton

Weather History for KGZH - March, 2013

Change the Weather History Date:

Friday, March 1, 2013

  Actual Average (KPRN) Record (KPRN)
Temperature  
Mean Temperature 46 °F -  
Max Temperature 55 °F 65 °F 83 °F (1932)
Min Temperature 36 °F 41 °F 23 °F (1968)
Degree Days  
Heating Degree Days 20    
Moisture  
Dew Point 30 °F    
Average Humidity 60    
Maximum Humidity 89    
Minimum Humidity 37    
Precipitation  
Precipitation 0.00 in - - ()
Sea Level Pressure  
Sea Level Pressure 30.09 in    
Wind  
Wind Speed 4 mph (NNW)    
Max Wind Speed 10 mph    
Max Gust Speed 21 mph    
Visibility 10 miles    
Events      
Averages and records for this station are not official NWS values.
T = Trace of Precipitation, MM = Missing Value Source: NWS Daily Summary

Daily Weather History Graph

Daily Weather History Graph

Search for Another Location

Airport or City:

Trip Planner

Search our weather history database for the weather conditions in past years. The results will help you decide how hot, cold, wet, or windy it might be!

Date:

Astronomy

Mar. 01, 2013 Rise Set
Actual Time 6:14 AM CST 5:46 PM CST
Civil Twilight 5:50 AM CST 6:10 PM CST
Nautical Twilight 5:22 AM CST 6:39 PM CST
Astronomical Twilight 4:54 AM CST 7:07 PM CST
Moon 9:58 PM CST (3/1) 8:19 AM CST (3/1)
Length of Visible Light 12h 20m
Length of Day
11h 31m
Waning Gibbous, 83% of the Moon is Illuminated
Mar 1
Waning Gibbous
Mar 4
Last Quarter
Mar 11
New
Mar 19
First Quarter
Mar 27
Full

Hourly Weather History & Observations

Time (CST) Temp. Windchill Dew Point Humidity Pressure Visibility Wind Dir Wind Speed Gust Speed Precip Events Conditions
12:53 AM 41.0 °F 39.0 °F 32.0 °F 70% 30.10 in 10.0 mi NNW 3.5 mph - N/A   Clear
1:53 AM 39.0 °F - 32.0 °F 76% 30.10 in 10.0 mi Calm Calm - N/A   Clear
2:53 AM 37.0 °F - 32.0 °F 82% 30.09 in 10.0 mi Calm Calm - N/A   Clear
3:53 AM 36.0 °F - 32.0 °F 86% 30.07 in 10.0 mi Calm Calm - N/A   Clear
4:53 AM 36.0 °F - 33.1 °F 89% 30.09 in 10.0 mi Calm Calm - N/A   Clear
5:53 AM 36.0 °F - 32.0 °F 86% 30.10 in 10.0 mi Calm Calm - N/A   Clear
7:53 AM 39.9 °F 37.8 °F 32.0 °F 73% 30.13 in 10.0 mi NNW 3.5 mph - N/A   Clear
8:53 AM 45.0 °F 41.2 °F 28.0 °F 52% 30.13 in 10.0 mi NNW 6.9 mph - N/A   Clear
9:53 AM 48.0 °F - 28.9 °F 48% 30.12 in 10.0 mi North 5.8 mph - N/A   Clear
10:53 AM 51.1 °F - 30.0 °F 44% 30.11 in 10.0 mi North 4.6 mph - N/A   Clear
11:53 AM 52.0 °F - 30.0 °F 43% 30.08 in 10.0 mi North 10.4 mph 16.1 mph N/A   Mostly Cloudy
12:53 PM 53.1 °F - 28.9 °F 40% 30.05 in 10.0 mi NW 8.1 mph - N/A   Partly Cloudy
1:53 PM 53.1 °F - 30.0 °F 41% 30.04 in 10.0 mi NNW 8.1 mph 17.3 mph N/A   Scattered Clouds
2:53 PM 53.1 °F - 28.0 °F 38% 30.03 in 10.0 mi NNW 8.1 mph 20.7 mph N/A   Scattered Clouds
3:53 PM 55.0 °F - 28.9 °F 37% 30.02 in 10.0 mi Variable 6.9 mph 16.1 mph N/A   Mostly Cloudy
4:53 PM 52.0 °F - 28.9 °F 41% 30.03 in 10.0 mi NNW 5.8 mph - N/A   Mostly Cloudy
5:53 PM 48.0 °F - 30.9 °F 52% 30.05 in 10.0 mi North 4.6 mph - N/A   Partly Cloudy
6:53 PM 45.0 °F 43.5 °F 32.0 °F 60% 30.07 in 10.0 mi NNW 3.5 mph - N/A   Clear
7:53 PM 43.0 °F 41.3 °F 30.9 °F 62% 30.09 in 10.0 mi North 3.5 mph - N/A   Clear
8:53 PM 41.0 °F 37.1 °F 30.0 °F 65% 30.12 in 10.0 mi NNW 5.8 mph - N/A   Clear
9:53 PM 39.9 °F 34.5 °F 28.0 °F 63% 30.14 in 10.0 mi NNW 8.1 mph - N/A   Clear
10:53 PM 37.9 °F 35.5 °F 27.0 °F 65% 30.14 in 10.0 mi Variable 3.5 mph - N/A   Scattered Clouds
11:53 PM 37.9 °F - 28.0 °F 68% 30.14 in 10.0 mi Calm Calm - N/A   Overcast